Location: Roofer Observing Site
(31.3950°N, 95.8969°W)
Time: 06:39:08
(UTC-06:00)

Tiangong 1 - Visible Passes

Search period start: 24 November 2017 00:00
Search period end: 04 December 2017 00:00
Orbit: 283 x 307 km, 42.8° (Epoch: 24 November)

Date Brightness Start Highest point End Pass type
(mag) Time Alt. Az. Time Alt. Az. Time Alt. Az.
24 Nov 0.9 18:11:47 10° WSW 18:14:20 58° NNW 18:15:52 20° NE visible
25 Nov 2.3 18:18:35 10° W 18:20:50 25° NNW 18:22:06 17° NNE visible
26 Nov 3.0 18:25:39 10° WNW 18:27:16 15° NNW 18:28:08 13° N visible
27 Nov 3.4 18:33:20 10° NNW 18:33:39 10° NNW 18:34:00 10° N visible
